• In Belarus
  • List of Countries
  • For 7 days
  • Water Temperature
  • Satellite Maps
  • Weather Map
  • Weather Widgets
  • user-avatar
    Login

    Hourly Weather Cardrona

    Today, 18 December, Monday

    Time Temperature Precipitation Wind Pressure Humidity
    00:00 +7°C° 0 mm 2 mps 679 mmHg 91%
    01:00 +7°C° 0 mm 2 mps 679 mmHg 90%
    02:00 +6°C° 0 mm 2 mps 679 mmHg 88%
    03:00 +6°C° 0 mm 2 mps 679 mmHg 88%
    04:00 +6°C° 0 mm 2 mps 679 mmHg 87%
    05:00 +7°C° 0 mm 1 mps 679 mmHg 86%
    06:00 +8°C° 0 mm 1 mps 680 mmHg 77%
    07:00 +10°C° 0 mm 1 mps 680 mmHg 68%
    08:00 +11°C° 0 mm 1 mps 680 mmHg 59%
    09:00 +13°C° 0 mm 1 mps 680 mmHg 51%
    10:00 +15°C° 0 mm 1 mps 680 mmHg 44%
    11:00 +15°C° 0 mm 1 mps 680 mmHg 36%
    12:00 +16°C° 0 mm 1 mps 680 mmHg 35%
    13:00 +18°C° 0 mm 1 mps 680 mmHg 33%
    14:00 +19°C° 0 mm 1 mps 680 mmHg 31%
    15:00 +18°C° 0 mm 1 mps 679 mmHg 34%
    16:00 +18°C° 0 mm 1 mps 679 mmHg 36%
    17:00 +15°C° 0 mm 2 mps 678 mmHg 42%
    18:00 +14°C° 0 mm 2 mps 677 mmHg 51%
    19:00 +12°C° 0 mm 2 mps 677 mmHg 59%
    20:00 +9°C° 0 mm 2 mps 677 mmHg 68%
    21:00 +8°C° 0 mm 2 mps 676 mmHg 71%
    22:00 +7°C° 0 mm 2 mps 676 mmHg 73%
    23:00 +6°C° 0 mm 2 mps 675 mmHg 76%

    Tomorrow, 19 December, Tuesday

    Time Temperature Precipitation Wind Pressure Humidity
    00:00 +6°C° 0 mm 2 mps 675 mmHg 74%
    01:00 +5°C° 0 mm 2 mps 675 mmHg 73%
    02:00 +4°C° 0 mm 3 mps 674 mmHg 71%
    03:00 +4°C° 0.1 mm 3 mps 674 mmHg 70%
    04:00 +4°C° 0.1 mm 3 mps 673 mmHg 70%
    05:00 +4°C° 0.1 mm 4 mps 673 mmHg 69%
    06:00 +5°C° 0.3 mm 4 mps 672 mmHg 72%
    07:00 +6°C° 0.3 mm 4 mps 672 mmHg 76%
    08:00 +7°C° 0.3 mm 5 mps 672 mmHg 79%
    09:00 +8°C° 0.2 mm 5 mps 672 mmHg 75%
    10:00 +9°C° 0.2 mm 6 mps 672 mmHg 72%
    11:00 +10°C° 0.2 mm 6 mps 672 mmHg 68%
    12:00 +11°C° 0 mm 6 mps 672 mmHg 61%
    13:00 +13°C° 0 mm 6 mps 673 mmHg 54%
    14:00 +13°C° 0 mm 6 mps 673 mmHg 47%
    15:00 +11°C° 0 mm 6 mps 673 mmHg 49%
    16:00 +12°C° 0 mm 5 mps 673 mmHg 50%
    17:00 +10°C° 0 mm 5 mps 673 mmHg 51%
    18:00 +7°C° 0 mm 4 mps 673 mmHg 58%
    19:00 +5°C° 0 mm 3 mps 673 mmHg 64%
    20:00 +3°C° 0 mm 3 mps 673 mmHg 71%
    21:00 +4°C° 0 mm 2 mps 674 mmHg 73%
    22:00 +3°C° 0 mm 2 mps 674 mmHg 75%
    23:00 +2°C° 0 mm 2 mps 674 mmHg 78%

    Day after tomorrow, 20 December, Wednesday

    Time Temperature Precipitation Wind Pressure Humidity
    00:00 +3°C° 0 mm 1 mps 675 mmHg 79%
    01:00 +3°C° 0 mm 1 mps 675 mmHg 81%
    02:00 +2°C° 0 mm 1 mps 675 mmHg 83%
    03:00 +3°C° 0 mm 1 mps 675 mmHg 80%
    04:00 +3°C° 0 mm 1 mps 675 mmHg 77%
    05:00 +4°C° 0 mm 1 mps 675 mmHg 74%
    06:00 +7°C° 0 mm 1 mps 676 mmHg 64%
    07:00 +9°C° 0 mm 1 mps 677 mmHg 54%
    08:00 +12°C° 0 mm 1 mps 678 mmHg 44%
    09:00 +14°C° 0 mm 1 mps 678 mmHg 39%
    10:00 +16°C° 0 mm 1 mps 678 mmHg 35%
    11:00 +19°C° 0 mm 1 mps 679 mmHg 30%
    12:00 +20°C° 0 mm 1 mps 678 mmHg 29%
    13:00 +21°C° 0 mm 1 mps 678 mmHg 28%
    14:00 +22°C° 0 mm 1 mps 678 mmHg 27%
    15:00 +22°C° 0 mm 1 mps 678 mmHg 30%
    16:00 +20°C° 0 mm 2 mps 678 mmHg 32%
    17:00 +20°C° 0 mm 2 mps 677 mmHg 35%
    18:00 +18°C° 0 mm 2 mps 677 mmHg 41%
    19:00 +16°C° 0 mm 2 mps 677 mmHg 48%
    20:00 +14°C° 0 mm 2 mps 677 mmHg 54%
    21:00 +13°C° 0 mm 2 mps 677 mmHg 55%
    22:00 +13°C° 0 mm 2 mps 676 mmHg 55%
    23:00 +11°C° 0 mm 3 mps 676 mmHg 56%

    21 December, Thursday

    Time Temperature Precipitation Wind Pressure Humidity
    00:00 +11°C° 0 mm 3 mps 676 mmHg 55%
    01:00 +10°C° 0 mm 3 mps 675 mmHg 53%
    02:00 +10°C° 0 mm 3 mps 674 mmHg 52%
    03:00 +10°C° 0.3 mm 3 mps 674 mmHg 58%
    04:00 +10°C° 0.3 mm 3 mps 674 mmHg 65%
    05:00 +10°C° 0.3 mm 4 mps 674 mmHg 71%
    06:00 +11°C° 0.3 mm 3 mps 674 mmHg 75%
    07:00 +12°C° 0.3 mm 3 mps 674 mmHg 80%
    08:00 +12°C° 0.3 mm 3 mps 674 mmHg 84%
    09:00 +13°C° 0.1 mm 3 mps 675 mmHg 84%
    10:00 +13°C° 0.1 mm 3 mps 675 mmHg 83%
    11:00 +15°C° 0.1 mm 2 mps 676 mmHg 83%
    12:00 +14°C° 0.2 mm 3 mps 676 mmHg 80%
    13:00 +14°C° 0.2 mm 3 mps 676 mmHg 77%
    14:00 +14°C° 0.2 mm 3 mps 677 mmHg 74%
    15:00 +13°C° 0.2 mm 3 mps 677 mmHg 74%
    16:00 +14°C° 0.2 mm 2 mps 677 mmHg 73%
    17:00 +13°C° 0.2 mm 2 mps 677 mmHg 72%
    18:00 +12°C° 0 mm 2 mps 678 mmHg 77%
    19:00 +10°C° 0 mm 2 mps 678 mmHg 81%
    20:00 +9°C° 0 mm 1 mps 678 mmHg 86%
    21:00 +8°C° 0 mm 1 mps 678 mmHg 88%
    22:00 +7°C° 0 mm 1 mps 679 mmHg 90%
    23:00 +7°C° 0 mm 1 mps 679 mmHg 92%

    22 December, Friday

    Time Temperature Precipitation Wind Pressure Humidity
    00:00 +6°C° 0 mm 1 mps 679 mmHg 93%
    01:00 +5°C° 0 mm 0 mps 678 mmHg 93%
    02:00 +5°C° 0 mm 0 mps 678 mmHg 93%
    03:00 +6°C° 0 mm 0 mps 679 mmHg 92%
    04:00 +6°C° 0 mm 0 mps 679 mmHg 90%
    05:00 +7°C° 0 mm 0 mps 679 mmHg 89%
    06:00 +9°C° 0 mm 0 mps 680 mmHg 80%
    07:00 +11°C° 0 mm 0 mps 680 mmHg 71%
    08:00 +13°C° 0 mm 0 mps 681 mmHg 62%
    09:00 +16°C° 0 mm 1 mps 681 mmHg 55%
    10:00 +19°C° 0 mm 1 mps 681 mmHg 49%
    11:00 +20°C° 0 mm 1 mps 682 mmHg 42%
    12:00 +21°C° 0 mm 1 mps 682 mmHg 40%
    13:00 +21°C° 0 mm 1 mps 681 mmHg 37%
    14:00 +21°C° 0 mm 2 mps 681 mmHg 35%
    15:00 +20°C° 0 mm 2 mps 681 mmHg 39%
    16:00 +19°C° 0 mm 2 mps 681 mmHg 43%
    17:00 +19°C° 0 mm 3 mps 681 mmHg 46%
    18:00 +17°C° 0 mm 2 mps 681 mmHg 56%
    19:00 +14°C° 0 mm 2 mps 681 mmHg 67%
    20:00 +12°C° 0 mm 2 mps 681 mmHg 77%
    21:00 +11°C° 0 mm 1 mps 681 mmHg 80%
    22:00 +11°C° 0 mm 1 mps 681 mmHg 84%
    23:00 +10°C° 0 mm 1 mps 681 mmHg 87%

    23 December, Saturday

    Time Temperature Precipitation Wind Pressure Humidity
    00:00 +10°C° 0 mm 1 mps 680 mmHg 87%
    01:00 +9°C° 0 mm 1 mps 680 mmHg 88%
    02:00 +9°C° 0 mm 1 mps 680 mmHg 88%
    03:00 +9°C° 0 mm 1 mps 680 mmHg 86%
    04:00 +9°C° 0 mm 1 mps 680 mmHg 85%
    05:00 +9°C° 0 mm 1 mps 680 mmHg 83%
    06:00 +12°C° 0 mm 1 mps 681 mmHg 73%
    07:00 +14°C° 0 mm 1 mps 681 mmHg 64%
    08:00 +16°C° 0 mm 1 mps 682 mmHg 55%
    09:00 +18°C° 0 mm 1 mps 682 mmHg 51%
    10:00 +19°C° 0 mm 1 mps 682 mmHg 48%
    11:00 +21°C° 0 mm 1 mps 682 mmHg 44%
    12:00 +21°C° 0.1 mm 1 mps 681 mmHg 45%
    13:00 +21°C° 0.1 mm 1 mps 681 mmHg 47%
    14:00 +21°C° 0.1 mm 1 mps 681 mmHg 48%
    15:00 +19°C° 0.2 mm 2 mps 681 mmHg 52%
    16:00 +18°C° 0.2 mm 2 mps 680 mmHg 56%
    17:00 +18°C° 0.2 mm 2 mps 680 mmHg 60%
    18:00 +16°C° 0.1 mm 2 mps 680 mmHg 67%
    19:00 +15°C° 0.1 mm 1 mps 680 mmHg 74%
    20:00 +13°C° 0.1 mm 1 mps 680 mmHg 81%
    21:00 +13°C° 0 mm 1 mps 680 mmHg 83%
    22:00 +12°C° 0 mm 1 mps 679 mmHg 86%
    23:00 +11°C° 0 mm 1 mps 679 mmHg 89%
    Show more